Location: Sevilla
(37.3933°N, 5.9839°W)
Time: 06:09:08
(UTC+02:00)

Transit 2A - Pass Details

Date: 02 July 2024
Orbit: 591 x 960 km, 66.7° (Epoch: 15 July)

Event Time Altitude Azimuth Distance (km) Brightness Sun altitude
Rises 21:52:48 0° 348° (NNW) 3,554 10.2 -1.6°
Reaches altitude 10° 21:57:34 10° 21° (NNE) 2,665 9.0 -2.4°
Maximum altitude 21:59:29 11° 39° (NE) 2,579 8.7 -2.7°
Drops below altitude 10° 22:01:25 10° 57° (ENE) 2,688 8.6 -3.0°
Sets 22:06:16 0° 89° (E) 3,636 9.0 -3.8°
